Location: *
(46.1866°S, 178.5290°W)
Time: 21:24:59
(UTC+00:00)

Cosmos 1782 - Pass Details

Date: 19 May 2021
Orbit: 536 x 550 km, 82.5° (Epoch: 12 June)

Event Time Altitude Azimuth Distance (km) Brightness Sun altitude
Rises 06:21:20 0° 186° (S) 2,772 6.4 -19.4°
Reaches altitude 10° 06:23:33 10° 183° (S) 1,869 5.5 -19.8°
Maximum altitude 06:27:38 62° 101° (E) 639 2.8 -20.5°
Enters shadow 06:28:11 55° 62° (ENE) 680 2.9 -20.6°
